KUIPER-00042

Last updated on Thu Jul 03 2025 00:02:08 GMT+0000 (Coordinated Universal Time)

1 64503U 25134D 25183.58335648 .00000209 00000+0 17565-4 0 9992 2 64503 51.8655 287.0249 0009871 148.4284 279.4357 15.34278728 1586
UTC large
Height (km)
Speed (km/s)
/
Latitude / Longitude
Inclination (degrees)
Orbital Period (minutes)
Azimuth
Elevation
Range (km)
Doppler Factor

Next 0 passes for location: London (51.5072 / 0.1276)

Sorry there are no passes over London.